Time,TemperatureF,DewpointF,PressureIn,WindDirection,WindDirectionDegrees,WindSpeedMPH,WindSpeedGustMPH,Humidity,HourlyPrecipIn,Conditions,Clouds,dailyrainin,SoftwareType,DateUTC
2013-07-06 00:06:00,75.1,62.0,29.79,South,186,8.0,15.0,63,0.00,,,0.00,weatherlink.com 1.10,2013-07-06 05:06:00,
2013-07-06 00:21:00,74.6,62.0,29.79,SSE,150,11.0,16.0,64,0.00,,,0.00,weatherlink.com 1.10,2013-07-06 05:21:00,
2013-07-06 00:36:00,74.4,61.0,29.79,SE,143,10.0,18.0,64,0.00,,,0.00,weatherlink.com 1.10,2013-07-06 05:36:00,
2013-07-06 00:51:00,74.1,61.0,29.79,SSE,160,10.0,18.0,64,0.00,,,0.00,weatherlink.com 1.10,2013-07-06 05:51:00,
2013-07-06 01:06:00,73.8,61.0,29.79,SSE,158,14.0,15.0,64,0.00,,,0.00,weatherlink.com 1.10,2013-07-06 06:06:00,
2013-07-06 01:21:00,73.6,60.0,29.79,South,187,11.0,16.0,63,0.00,,,0.00,weatherlink.com 1.10,2013-07-06 06:21:00,
2013-07-06 01:36:00,73.2,60.0,29.79,SSE,162,10.0,14.0,64,0.00,,,0.00,weatherlink.com 1.10,2013-07-06 06:36:00,
2013-07-06 01:51:00,73.0,60.0,29.79,South,178,13.0,15.0,64,0.00,,,0.00,weatherlink.com 1.10,2013-07-06 06:51:00,
2013-07-06 02:06:00,72.6,60.0,29.79,South,174,12.0,16.0,64,0.00,,,0.00,weatherlink.com 1.10,2013-07-06 07:06:00,
2013-07-06 02:21:00,72.3,60.0,29.79,SSW,193,12.0,16.0,65,0.00,,,0.00,weatherlink.com 1.10,2013-07-06 07:21:00,
2013-07-06 02:36:00,72.0,60.0,29.79,SSE,160,11.0,15.0,65,0.00,,,0.00,weatherlink.com 1.10,2013-07-06 07:36:00,
2013-07-06 02:51:00,72.0,60.0,29.79,SE,124,8.0,15.0,65,0.00,,,0.00,weatherlink.com 1.10,2013-07-06 07:51:00,
2013-07-06 03:06:00,71.8,60.0,29.79,South,181,10.0,16.0,66,0.00,,,0.00,weatherlink.com 1.10,2013-07-06 08:06:00,
2013-07-06 03:21:00,71.6,60.0,29.79,SSE,148,9.0,15.0,66,0.00,,,0.00,weatherlink.com 1.10,2013-07-06 08:21:00,
2013-07-06 03:36:00,71.3,60.0,29.79,SSE,162,10.0,14.0,67,0.00,,,0.00,weatherlink.com 1.10,2013-07-06 08:36:00,
2013-07-06 03:51:00,70.9,60.0,29.79,South,181,12.0,13.0,68,0.00,,,0.00,weatherlink.com 1.10,2013-07-06 08:51:00,
2013-07-06 04:06:00,70.6,60.0,29.78,SE,144,12.0,15.0,69,0.00,,,0.00,weatherlink.com 1.10,2013-07-06 09:06:00,
2013-07-06 04:21:00,70.3,60.0,29.78,SSW,195,8.0,17.0,70,0.00,,,0.00,weatherlink.com 1.10,2013-07-06 09:21:00,
2013-07-06 04:36:00,70.3,60.0,29.77,SE,143,10.0,17.0,70,0.00,,,0.00,weatherlink.com 1.10,2013-07-06 09:36:00,
2013-07-06 04:51:00,70.4,60.0,29.78,SE,146,12.0,17.0,70,0.00,,,0.00,weatherlink.com 1.10,2013-07-06 09:51:00,
2013-07-06 05:06:00,70.4,60.0,29.78,SSE,163,10.0,16.0,70,0.00,,,0.00,weatherlink.com 1.10,2013-07-06 10:06:00,
2013-07-06 05:21:00,70.6,60.0,29.78,SSE,151,12.0,18.0,70,0.00,,,0.00,weatherlink.com 1.10,2013-07-06 10:21:00,
2013-07-06 05:36:00,70.7,60.0,29.78,South,175,13.0,17.0,70,0.00,,,0.00,weatherlink.com 1.10,2013-07-06 10:36:00,
2013-07-06 05:51:00,70.5,60.0,29.79,SSE,162,12.0,17.0,70,0.00,,,0.00,weatherlink.com 1.10,2013-07-06 10:51:00,
2013-07-06 06:06:00,70.5,61.0,29.79,South,181,13.0,21.0,71,0.00,,,0.00,weatherlink.com 1.10,2013-07-06 11:06:00,
2013-07-06 06:21:00,70.3,60.0,29.79,SSE,163,11.0,16.0,71,0.00,,,0.00,weatherlink.com 1.10,2013-07-06 11:21:00,
2013-07-06 06:37:00,70.2,60.0,29.80,SSE,167,11.0,17.0,71,0.00,,,0.00,weatherlink.com 1.10,2013-07-06 11:37:00,
2013-07-06 06:52:00,70.2,61.0,29.79,SSE,160,13.0,16.0,72,0.00,,,0.00,weatherlink.com 1.10,2013-07-06 11:52:00,
2013-07-06 07:07:00,70.2,61.0,29.79,South,188,9.0,17.0,72,0.00,,,0.00,weatherlink.com 1.10,2013-07-06 12:07:00,
2013-07-06 07:22:00,70.1,61.0,29.79,SSE,163,10.0,14.0,72,0.00,,,0.00,weatherlink.com 1.10,2013-07-06 12:22:00,
2013-07-06 07:37:00,70.1,61.0,29.79,SSE,162,10.0,16.0,72,0.00,,,0.00,weatherlink.com 1.10,2013-07-06 12:37:00,
2013-07-06 07:52:00,70.2,61.0,29.79,SSE,159,9.0,14.0,72,0.00,,,0.00,weatherlink.com 1.10,2013-07-06 12:52:00,
2013-07-06 08:07:00,70.5,61.0,29.79,SSE,158,9.0,16.0,72,0.00,,,0.00,weatherlink.com 1.10,2013-07-06 13:07:00,
2013-07-06 08:22:00,70.5,61.0,29.79,SE,125,7.0,14.0,72,0.00,,,0.00,weatherlink.com 1.10,2013-07-06 13:22:00,
2013-07-06 08:37:00,70.7,61.0,29.79,South,173,8.0,14.0,72,0.00,,,0.00,weatherlink.com 1.10,2013-07-06 13:37:00,
2013-07-06 08:52:00,71.2,61.0,29.78,South,173,7.0,13.0,71,0.00,,,0.00,weatherlink.com 1.10,2013-07-06 13:52:00,
2013-07-06 09:07:00,71.4,62.0,29.79,South,172,6.0,14.0,71,0.00,,,0.00,weatherlink.com 1.10,2013-07-06 14:07:00,
2013-07-06 09:22:00,71.8,62.0,29.78,SSE,160,8.0,15.0,72,0.00,,,0.00,weatherlink.com 1.10,2013-07-06 14:22:00,
2013-07-06 09:37:00,72.0,62.0,29.79,SSE,148,11.0,16.0,71,0.00,,,0.00,weatherlink.com 1.10,2013-07-06 14:37:00,
2013-07-06 09:52:00,72.2,63.0,29.78,South,173,11.0,15.0,72,0.00,,,0.00,weatherlink.com 1.10,2013-07-06 14:52:00,
2013-07-06 10:07:00,72.7,63.0,29.78,SSE,152,11.0,16.0,71,0.00,,,0.00,weatherlink.com 1.10,2013-07-06 15:07:00,
2013-07-06 10:22:00,73.5,64.0,29.77,SE,124,13.0,16.0,71,0.00,,,0.00,weatherlink.com 1.10,2013-07-06 15:22:00,
2013-07-06 10:37:00,74.8,64.0,29.77,SSW,196,13.0,17.0,70,0.00,,,0.00,weatherlink.com 1.10,2013-07-06 15:37:00,
2013-07-06 10:52:00,76.1,65.0,29.77,SSE,153,11.0,17.0,68,0.00,,,0.00,weatherlink.com 1.10,2013-07-06 15:52:00,
2013-07-06 11:22:00,80.0,65.0,29.77,South,179,14.0,22.0,60,0.00,,,0.00,weatherlink.com 1.10,2013-07-06 16:22:00,
2013-07-06 11:37:00,80.3,65.0,29.76,South,169,11.0,23.0,60,0.00,,,0.00,weatherlink.com 1.10,2013-07-06 16:37:00,
2013-07-06 12:07:00,82.0,66.0,29.76,SE,145,16.0,20.0,59,0.00,,,0.00,weatherlink.com 1.10,2013-07-06 17:07:00,
2013-07-06 12:22:00,83.0,68.0,29.75,South,176,13.0,22.0,60,0.00,,,0.00,weatherlink.com 1.10,2013-07-06 17:22:00,
2013-07-06 12:52:00,85.2,66.0,29.75,SSE,156,12.0,21.0,53,0.00,,,0.00,weatherlink.com 1.10,2013-07-06 17:52:00,
2013-07-06 13:07:00,85.6,66.0,29.75,SE,125,15.0,21.0,53,0.00,,,0.00,weatherlink.com 1.10,2013-07-06 18:07:00,
2013-07-06 13:37:00,86.2,65.0,29.74,ESE,116,20.0,24.0,50,0.00,,,0.00,weatherlink.com 1.10,2013-07-06 18:37:00,
2013-07-06 13:52:00,86.6,66.0,29.73,SW,214,13.0,25.0,50,0.00,,,0.00,weatherlink.com 1.10,2013-07-06 18:52:00,
2013-07-06 14:22:00,87.3,68.0,29.73,SSE,148,9.0,25.0,52,0.00,,,0.00,weatherlink.com 1.10,2013-07-06 19:22:00,
2013-07-06 14:37:00,87.6,67.0,29.73,South,181,13.0,22.0,50,0.00,,,0.00,weatherlink.com 1.10,2013-07-06 19:37:00,
2013-07-06 14:52:00,88.2,67.0,29.73,South,188,12.0,18.0,50,0.00,,,0.00,weatherlink.com 1.10,2013-07-06 19:52:00,
2013-07-06 15:08:00,87.5,67.0,29.73,SSW,210,15.0,22.0,50,0.00,,,0.00,weatherlink.com 1.10,2013-07-06 20:08:00,
2013-07-06 15:23:00,87.4,65.0,29.73,SSE,160,15.0,20.0,47,0.00,,,0.00,weatherlink.com 1.10,2013-07-06 20:23:00,
2013-07-06 16:23:00,86.2,65.0,29.73,SSE,158,12.0,21.0,50,0.00,,,0.00,weatherlink.com 1.10,2013-07-06 21:23:00,
2013-07-06 16:38:00,86.1,67.0,29.73,South,191,9.0,19.0,53,0.00,,,0.00,weatherlink.com 1.10,2013-07-06 21:38:00,
2013-07-06 16:53:00,86.0,66.0,29.73,SSE,154,11.0,15.0,52,0.00,,,0.00,weatherlink.com 1.10,2013-07-06 21:53:00,
2013-07-06 17:08:00,85.7,66.0,29.72,South,169,12.0,16.0,52,0.00,,,0.00,weatherlink.com 1.10,2013-07-06 22:08:00,
2013-07-06 17:53:00,85.2,67.0,29.72,SSE,152,13.0,17.0,54,0.00,,,0.00,weatherlink.com 1.10,2013-07-06 22:53:00,
2013-07-06 18:08:00,84.9,65.0,29.71,SSE,156,9.0,16.0,52,0.00,,,0.00,weatherlink.com 1.10,2013-07-06 23:08:00,
2013-07-06 18:23:00,84.6,67.0,29.71,South,180,8.0,13.0,55,0.00,,,0.00,weatherlink.com 1.10,2013-07-06 23:23:00,
2013-07-06 18:38:00,84.2,68.0,29.71,South,174,5.0,11.0,58,0.00,,,0.00,weatherlink.com 1.10,2013-07-06 23:38:00,
2013-07-06 18:53:00,83.7,68.0,29.71,SSE,165,8.0,9.0,59,0.00,,,0.00,weatherlink.com 1.10,2013-07-06 23:53:00,
2013-07-06 19:08:00,83.4,67.0,29.72,SSW,196,4.0,11.0,59,0.00,,,0.00,weatherlink.com 1.10,2013-07-07 00:08:00,
2013-07-06 19:23:00,82.8,68.0,29.72,SSW,196,7.0,10.0,61,0.00,,,0.00,weatherlink.com 1.10,2013-07-07 00:23:00,
2013-07-06 19:38:00,82.4,68.0,29.72,SSW,210,6.0,9.0,62,0.00,,,0.00,weatherlink.com 1.10,2013-07-07 00:38:00,
2013-07-06 19:53:00,82.0,69.0,29.73,SSW,201,5.0,7.0,64,0.00,,,0.00,weatherlink.com 1.10,2013-07-07 00:53:00,
2013-07-06 20:08:00,81.9,69.0,29.73,South,190,4.0,7.0,65,0.00,,,0.00,weatherlink.com 1.10,2013-07-07 01:08:00,
2013-07-06 20:38:00,81.6,68.0,29.73,SSE,147,7.0,9.0,64,0.00,,,0.00,weatherlink.com 1.10,2013-07-07 01:38:00,
2013-07-06 20:53:00,81.0,68.0,29.73,SE,141,7.0,10.0,64,0.00,,,0.00,weatherlink.com 1.10,2013-07-07 01:53:00,
2013-07-06 21:08:00,80.7,68.0,29.73,SSE,148,9.0,10.0,65,0.00,,,0.00,weatherlink.com 1.10,2013-07-07 02:08:00,
2013-07-06 21:38:00,80.3,68.0,29.75,SSE,162,7.0,12.0,66,0.00,,,0.00,weatherlink.com 1.10,2013-07-07 02:38:00,
2013-07-06 21:53:00,80.0,68.0,29.75,SSE,160,7.0,12.0,66,0.00,,,0.00,weatherlink.com 1.10,2013-07-07 02:53:00,
2013-07-06 22:08:00,79.3,68.0,29.76,South,172,7.0,11.0,68,0.00,,,0.00,weatherlink.com 1.10,2013-07-07 03:08:00,
2013-07-06 22:23:00,78.7,68.0,29.76,South,177,8.0,11.0,69,0.00,,,0.00,weatherlink.com 1.10,2013-07-07 03:23:00,
2013-07-06 22:38:00,78.6,68.0,29.76,SSE,160,9.0,14.0,69,0.00,,,0.00,weatherlink.com 1.10,2013-07-07 03:38:00,
2013-07-06 22:53:00,78.5,68.0,29.76,SSE,160,10.0,16.0,69,0.00,,,0.00,weatherlink.com 1.10,2013-07-07 03:53:00,
2013-07-06 23:08:00,78.1,67.0,29.76,South,174,8.0,17.0,69,0.00,,,0.00,weatherlink.com 1.10,2013-07-07 04:08:00,
2013-07-06 23:23:00,77.4,67.0,29.77,South,178,8.0,15.0,70,0.00,,,0.00,weatherlink.com 1.10,2013-07-07 04:23:00,
2013-07-06 23:38:00,77.0,67.0,29.76,South,184,8.0,15.0,71,0.00,,,0.00,weatherlink.com 1.10,2013-07-07 04:38:00,
2013-07-06 23:53:00,76.4,67.0,29.76,SSW,193,8.0,13.0,73,0.00,,,0.00,weatherlink.com 1.10,2013-07-07 04:53:00,